This is the latest recevied weather packets stored in our database for station/object KQ4WWD. If no packets are shown the sender has not sent any weather packets the latest 10 day(s).
| Time | Temp. | Humidity | Pressure | Rain* | Wind** | Luminosity | Snow |
|---|---|---|---|---|---|---|---|
| 1788048999 | 26.67° C | 83% | 1018 hPa | 0 mm | - | 0 W/m² | - |
| 1788048695 | 26.67° C | 82% | 1017.8 hPa | 0 mm | - | 0 W/m² | - |
| 1788048393 | 26.67° C | 82% | 1017.9 hPa | 0 mm | - | 0 W/m² | - |
| 1788048093 | 27.22° C | 81% | 1017.7 hPa | 0 mm | - | 0 W/m² | - |
| 1788047790 | 27.22° C | 81% | 1017.7 hPa | 0 mm | - | 0 W/m² | - |
| 1788047490 | 27.22° C | 81% | 1017.7 hPa | 0 mm | - | 0 W/m² | - |
| 1788047185 | 27.22° C | 81% | 1017.4 hPa | 0 mm | - | 2 W/m² | - |
| 1788046880 | 27.78° C | 82% | 1017.3 hPa | 0 mm | - | 4 W/m² | - |
| 1788046579 | 27.78° C | 82% | 1017.6 hPa | 0 mm | - | 8 W/m² | - |
| 1788046274 | 27.78° C | 82% | 1017.4 hPa | 0 mm | - | 12 W/m² | - |
| 1788045972 | 27.78° C | 82% | 1017.3 hPa | 0 mm | - | 15 W/m² | - |
| 1788045668 | 27.78° C | 82% | 1017.2 hPa | 0 mm | - | 18 W/m² | - |
| 1788045368 | 27.78° C | 82% | 1017.2 hPa | 0 mm | - | 19 W/m² | - |
| 1788045063 | 28.33° C | 81% | 1017.1 hPa | 0 mm | - | 15 W/m² | - |
| 1788044762 | 28.89° C | 78% | 1016.8 hPa | 0 mm | - | 23 W/m² | - |
| 1788044458 | 30.56° C | 78% | 1017 hPa | 0 mm | - | 12 W/m² | - |
| 1788044157 | 30.56° C | 78% | 1016.7 hPa | 0 mm | - | 26 W/m² | - |
| 1788043854 | 30.56° C | 79% | 1017.3 hPa | 0 mm | - | 18 W/m² | - |
| 1788043554 | 30.56° C | 78% | 1016.9 hPa | 0 mm | - | 21 W/m² | - |
| 1788043254 | 30.56° C | 78% | 1017.1 hPa | 0 mm | - | 29 W/m² | - |
| 1788042949 | 30.56° C | 78% | 1017.1 hPa | 0 mm | - | 46 W/m² | - |
| 1788042644 | 30.56° C | 78% | 1016.7 hPa | 0 mm | - | 59 W/m² | - |
| 1788042343 | 30.56° C | 77% | 1016.5 hPa | 0 mm | - | 83 W/m² | - |
| 1788042038 | 30.56° C | 76% | 1016.1 hPa | 0 mm | - | 93 W/m² | - |
| 1788041734 | 30.56° C | 73% | 1016.1 hPa | 0 mm | - | 76 W/m² | - |
* Rain latest hour (hover to see other rain measurements)
** Current wind speed in m/s (hover to see current wind gust speed)